User: anonymous   Login
Location: Newark
(22.8000°N, 86.1800°E)
Time: 09:16:07
(UTC+00:00)
Language:

STRAND 1 - Orbit

View from above orbital plane
View from above orbital plane
View from above satellite
View from above satellite

Ground track
Ground track

The orbit data is extracted from the following two-line orbital elements,

1 39090U 13009E   20157.57558773  .00000038  00000-0  28337-4 0  9994
2 39090  98.4575   2.0281 0008468 326.9485  33.1170 14.35132663381008
Epoch (UTC): 05 June 2020 13:48:50
Eccentricity: 0.0008468
inclination: 98.4575°
perigee height: 768 km
apogee height: 780 km
right ascension of ascending node: 2.0281°
argument of perigee: 326.9485°
revolutions per day: 14.35132663
mean anomaly at epoch: 33.1170°
orbit number at epoch: 38100

The dashed part of the orbit path shows where the satellite is in the earth's shadow,  

DLR